Time,TemperatureF,DewpointF,PressureIn,WindDirection,WindDirectionDegrees,WindSpeedMPH,WindSpeedGustMPH,Humidity,HourlyPrecipIn,Conditions,Clouds,dailyrainin,SolarRadiationWatts/m^2,SoftwareType,DateUTC
2013-07-07 00:01:00,83.0,66.0,-100.00,SSE,149,12.0,22.0,56,0.00,,,0.00,0.000000,,2013-07-07 05:01:00,
2013-07-07 00:11:00,83.0,66.0,-100.00,SSE,149,12.0,22.0,56,0.00,,,0.00,0.000000,,2013-07-07 05:11:00,
2013-07-07 00:21:00,83.0,66.0,-100.00,SSE,149,12.0,22.0,56,0.00,,,0.00,0.000000,,2013-07-07 05:21:00,
2013-07-07 00:31:00,83.0,66.0,-100.00,SSE,149,12.0,22.0,56,0.00,,,0.00,0.000000,,2013-07-07 05:31:00,
2013-07-07 01:01:00,80.0,67.0,-100.00,SSE,151,11.0,21.0,65,0.00,,,0.00,0.000000,,2013-07-07 06:01:00,
2013-07-07 01:11:00,80.0,67.0,-100.00,SSE,151,11.0,21.0,65,0.00,,,0.00,0.000000,,2013-07-07 06:11:00,
2013-07-07 01:21:00,80.0,67.0,-100.00,SSE,151,11.0,21.0,65,0.00,,,0.00,0.000000,,2013-07-07 06:21:00,
2013-07-07 01:32:00,80.0,67.0,-100.00,SSE,151,11.0,21.0,65,0.00,,,0.00,0.000000,,2013-07-07 06:32:00,
2013-07-07 02:02:00,79.0,69.0,-100.00,SSE,160,8.0,16.0,71,0.00,,,0.00,0.000000,,2013-07-07 07:02:00,
2013-07-07 02:11:00,79.0,69.0,-100.00,SSE,160,8.0,16.0,71,0.00,,,0.00,0.000000,,2013-07-07 07:11:00,
2013-07-07 02:22:00,79.0,69.0,-100.00,SSE,160,8.0,16.0,71,0.00,,,0.00,0.000000,,2013-07-07 07:22:00,
2013-07-07 02:33:00,79.0,69.0,-100.00,SSE,160,8.0,16.0,71,0.00,,,0.00,0.000000,,2013-07-07 07:33:00,
2013-07-07 03:02:00,77.0,69.0,-100.00,SSE,160,4.0,9.0,77,0.00,,,0.00,0.000000,,2013-07-07 08:02:00,
2013-07-07 03:12:00,77.0,69.0,-100.00,SSE,160,4.0,9.0,77,0.00,,,0.00,0.000000,,2013-07-07 08:12:00,
2013-07-07 03:22:00,77.0,69.0,-100.00,SSE,160,4.0,9.0,77,0.00,,,0.00,0.000000,,2013-07-07 08:22:00,
2013-07-07 03:34:00,77.0,69.0,-100.00,SSE,160,4.0,9.0,77,0.00,,,0.00,0.000000,,2013-07-07 08:34:00,
2013-07-07 04:02:00,75.0,69.0,-100.00,South,179,4.0,6.0,82,0.00,,,0.00,0.000000,,2013-07-07 09:02:00,
2013-07-07 04:12:00,75.0,69.0,-100.00,South,179,4.0,6.0,82,0.00,,,0.00,0.000000,,2013-07-07 09:12:00,
2013-07-07 04:22:00,75.0,69.0,-100.00,South,179,4.0,6.0,82,0.00,,,0.00,0.000000,,2013-07-07 09:22:00,
2013-07-07 04:34:00,75.0,69.0,-100.00,South,179,4.0,6.0,82,0.00,,,0.00,0.000000,,2013-07-07 09:34:00,
2013-07-07 05:03:00,73.0,69.0,-100.00,East,93,2.0,5.0,86,0.00,,,0.00,0.000000,,2013-07-07 10:03:00,
2013-07-07 05:12:00,73.0,69.0,-100.00,East,93,2.0,5.0,86,0.00,,,0.00,0.000000,,2013-07-07 10:12:00,
2013-07-07 05:22:00,73.0,69.0,-100.00,East,93,2.0,5.0,86,0.00,,,0.00,0.000000,,2013-07-07 10:22:00,
2013-07-07 05:32:00,73.0,69.0,-100.00,East,93,2.0,5.0,86,0.00,,,0.00,0.000000,,2013-07-07 10:32:00,
2013-07-07 06:02:00,73.0,70.0,-100.00,SSE,154,3.0,7.0,90,0.00,,,0.00,0.000000,,2013-07-07 11:02:00,
2013-07-07 06:11:00,73.0,70.0,-100.00,SSE,154,3.0,7.0,90,0.00,,,0.00,0.000000,,2013-07-07 11:11:00,
2013-07-07 06:23:00,73.0,70.0,-100.00,SSE,154,3.0,7.0,90,0.00,,,0.00,0.000000,,2013-07-07 11:23:00,
2013-07-07 06:34:00,73.0,70.0,-100.00,SSE,154,3.0,7.0,90,0.00,,,0.00,0.000000,,2013-07-07 11:34:00,
2013-07-07 07:02:00,73.0,71.0,-100.00,SE,133,4.0,7.0,92,0.00,,,0.00,0.000000,,2013-07-07 12:02:00,
2013-07-07 07:12:00,73.0,71.0,-100.00,SE,133,4.0,7.0,92,0.00,,,0.00,0.000000,,2013-07-07 12:12:00,
2013-07-07 07:22:00,73.0,71.0,-100.00,SE,133,4.0,7.0,92,0.00,,,0.00,0.000000,,2013-07-07 12:22:00,
2013-07-07 07:34:00,73.0,71.0,-100.00,SE,133,4.0,7.0,92,0.00,,,0.00,0.000000,,2013-07-07 12:34:00,
2013-07-07 08:02:00,75.0,71.0,-100.00,SSE,147,5.0,11.0,88,0.00,,,0.00,50.000000,,2013-07-07 13:02:00,
2013-07-07 08:11:00,75.0,71.0,-100.00,SSE,147,5.0,11.0,88,0.00,,,0.00,50.000000,,2013-07-07 13:11:00,
2013-07-07 08:22:00,75.0,71.0,-100.00,SSE,147,5.0,11.0,88,0.00,,,0.00,50.000000,,2013-07-07 13:22:00,
2013-07-07 08:34:00,75.0,71.0,-100.00,SSE,147,5.0,11.0,88,0.00,,,0.00,50.000000,,2013-07-07 13:34:00,
2013-07-07 09:02:00,77.0,72.0,-100.00,ESE,119,5.0,9.0,84,0.00,,,0.00,144.000000,,2013-07-07 14:02:00,
2013-07-07 09:12:00,77.0,72.0,-100.00,ESE,119,5.0,9.0,84,0.00,,,0.00,144.000000,,2013-07-07 14:12:00,
2013-07-07 09:22:00,77.0,72.0,-100.00,ESE,119,5.0,9.0,84,0.00,,,0.00,144.000000,,2013-07-07 14:22:00,
2013-07-07 09:34:00,77.0,72.0,-100.00,ESE,119,5.0,9.0,84,0.00,,,0.00,144.000000,,2013-07-07 14:34:00,
2013-07-07 10:02:00,80.0,71.0,-100.00,South,169,6.0,9.0,73,0.00,,,0.00,299.000000,,2013-07-07 15:02:00,
2013-07-07 10:11:00,80.0,71.0,-100.00,South,169,6.0,9.0,73,0.00,,,0.00,299.000000,,2013-07-07 15:11:00,
2013-07-07 10:22:00,80.0,71.0,-100.00,South,169,6.0,9.0,73,0.00,,,0.00,299.000000,,2013-07-07 15:22:00,
2013-07-07 10:34:00,80.0,71.0,-100.00,South,169,6.0,9.0,73,0.00,,,0.00,299.000000,,2013-07-07 15:34:00,
2013-07-07 11:01:00,84.0,70.0,-100.00,SE,146,6.0,13.0,62,0.00,,,0.00,503.000000,,2013-07-07 16:01:00,
2013-07-07 11:11:00,84.0,70.0,-100.00,SE,146,6.0,13.0,62,0.00,,,0.00,503.000000,,2013-07-07 16:11:00,
2013-07-07 11:23:00,84.0,70.0,-100.00,SE,146,6.0,13.0,62,0.00,,,0.00,503.000000,,2013-07-07 16:23:00,
2013-07-07 11:34:00,84.0,70.0,-100.00,SE,146,6.0,13.0,62,0.00,,,0.00,503.000000,,2013-07-07 16:34:00,
2013-07-07 12:02:00,87.0,69.0,-100.00,SE,145,6.0,14.0,55,0.00,,,0.00,554.000000,,2013-07-07 17:02:00,
2013-07-07 12:12:00,87.0,69.0,-100.00,SE,145,6.0,14.0,55,0.00,,,0.00,554.000000,,2013-07-07 17:12:00,
2013-07-07 12:22:00,87.0,69.0,-100.00,SE,145,6.0,14.0,55,0.00,,,0.00,554.000000,,2013-07-07 17:22:00,
2013-07-07 12:34:00,87.0,69.0,-100.00,SE,145,6.0,14.0,55,0.00,,,0.00,554.000000,,2013-07-07 17:34:00,
2013-07-07 13:02:00,89.0,67.0,-100.00,ESE,105,8.0,15.0,48,0.00,,,0.00,636.000000,,2013-07-07 18:02:00,
2013-07-07 13:11:00,89.0,67.0,-100.00,ESE,105,8.0,15.0,48,0.00,,,0.00,636.000000,,2013-07-07 18:11:00,
2013-07-07 13:22:00,89.0,67.0,-100.00,ESE,105,8.0,15.0,48,0.00,,,0.00,636.000000,,2013-07-07 18:22:00,
2013-07-07 13:33:00,89.0,67.0,-100.00,ESE,105,8.0,15.0,48,0.00,,,0.00,636.000000,,2013-07-07 18:33:00,
2013-07-07 14:01:00,92.0,65.0,-100.00,SE,139,8.0,17.0,41,0.00,,,0.00,765.000000,,2013-07-07 19:01:00,
2013-07-07 14:11:00,92.0,65.0,-100.00,SE,139,8.0,17.0,41,0.00,,,0.00,765.000000,,2013-07-07 19:11:00,
2013-07-07 14:22:00,92.0,65.0,-100.00,SE,139,8.0,17.0,41,0.00,,,0.00,765.000000,,2013-07-07 19:22:00,
2013-07-07 14:33:00,92.0,65.0,-100.00,SE,139,8.0,17.0,41,0.00,,,0.00,765.000000,,2013-07-07 19:33:00,
2013-07-07 15:02:00,94.0,62.0,-100.00,ESE,118,8.0,15.0,35,0.00,,,0.00,911.000000,,2013-07-07 20:02:00,
2013-07-07 15:11:00,94.0,62.0,-100.00,ESE,118,8.0,15.0,35,0.00,,,0.00,911.000000,,2013-07-07 20:11:00,
2013-07-07 15:22:00,94.0,62.0,-100.00,ESE,118,8.0,15.0,35,0.00,,,0.00,911.000000,,2013-07-07 20:22:00,
2013-07-07 15:34:00,94.0,62.0,-100.00,ESE,118,8.0,15.0,35,0.00,,,0.00,911.000000,,2013-07-07 20:34:00,
2013-07-07 16:02:00,94.0,62.0,-100.00,ESE,115,9.0,17.0,35,0.00,,,0.00,685.000000,,2013-07-07 21:02:00,
2013-07-07 16:11:00,94.0,62.0,-100.00,ESE,115,9.0,17.0,35,0.00,,,0.00,685.000000,,2013-07-07 21:11:00,
2013-07-07 16:22:00,94.0,62.0,-100.00,ESE,115,9.0,17.0,35,0.00,,,0.00,685.000000,,2013-07-07 21:22:00,
2013-07-07 16:33:00,94.0,62.0,-100.00,ESE,115,9.0,17.0,35,0.00,,,0.00,685.000000,,2013-07-07 21:33:00,
2013-07-07 17:01:00,96.0,62.0,-100.00,East,86,9.0,19.0,33,0.00,,,0.00,709.000000,,2013-07-07 22:01:00,
2013-07-07 17:11:00,96.0,62.0,-100.00,East,86,9.0,19.0,33,0.00,,,0.00,709.000000,,2013-07-07 22:11:00,
2013-07-07 17:22:00,96.0,62.0,-100.00,East,86,9.0,19.0,33,0.00,,,0.00,709.000000,,2013-07-07 22:22:00,
2013-07-07 17:34:00,96.0,62.0,-100.00,East,86,9.0,19.0,33,0.00,,,0.00,709.000000,,2013-07-07 22:34:00,
2013-07-07 18:02:00,97.0,62.0,-100.00,East,85,9.0,18.0,32,0.00,,,0.00,555.000000,,2013-07-07 23:02:00,
2013-07-07 18:12:00,97.0,62.0,-100.00,East,85,9.0,18.0,32,0.00,,,0.00,555.000000,,2013-07-07 23:12:00,
2013-07-07 18:22:00,97.0,62.0,-100.00,East,85,9.0,18.0,32,0.00,,,0.00,555.000000,,2013-07-07 23:22:00,
2013-07-07 18:33:00,97.0,62.0,-100.00,East,85,9.0,18.0,32,0.00,,,0.00,555.000000,,2013-07-07 23:33:00,
2013-07-07 19:01:00,94.0,62.0,-100.00,SE,130,8.0,15.0,35,0.00,,,0.00,318.000000,,2013-07-08 00:01:00,
2013-07-07 19:11:00,94.0,62.0,-100.00,SE,130,8.0,15.0,35,0.00,,,0.00,318.000000,,2013-07-08 00:11:00,
2013-07-07 19:22:00,94.0,62.0,-100.00,SE,130,8.0,15.0,35,0.00,,,0.00,318.000000,,2013-07-08 00:22:00,
2013-07-07 19:33:00,94.0,62.0,-100.00,SE,130,8.0,15.0,35,0.00,,,0.00,318.000000,,2013-07-08 00:33:00,
2013-07-07 20:01:00,87.0,65.0,-100.00,SSE,153,14.0,23.0,49,0.00,,,0.00,181.000000,,2013-07-08 01:01:00,
2013-07-07 20:11:00,87.0,65.0,-100.00,SSE,153,14.0,23.0,49,0.00,,,0.00,181.000000,,2013-07-08 01:11:00,
2013-07-07 20:22:00,87.0,65.0,-100.00,SSE,153,14.0,23.0,49,0.00,,,0.00,181.000000,,2013-07-08 01:22:00,
2013-07-07 20:32:00,87.0,65.0,-100.00,SSE,153,14.0,23.0,49,0.00,,,0.00,181.000000,,2013-07-08 01:32:00,
2013-07-07 21:02:00,83.0,69.0,-100.00,SSE,149,14.0,24.0,63,0.00,,,0.00,29.000000,,2013-07-08 02:02:00,
2013-07-07 21:11:00,83.0,69.0,-100.00,SSE,149,14.0,24.0,63,0.00,,,0.00,29.000000,,2013-07-08 02:11:00,
2013-07-07 21:22:00,83.0,69.0,-100.00,SSE,149,14.0,24.0,63,0.00,,,0.00,29.000000,,2013-07-08 02:22:00,
2013-07-07 21:33:00,83.0,69.0,-100.00,SSE,149,14.0,24.0,63,0.00,,,0.00,29.000000,,2013-07-08 02:33:00,
2013-07-07 22:01:00,81.0,71.0,-100.00,SSE,160,11.0,21.0,72,0.00,,,0.00,1.000000,,2013-07-08 03:01:00,
2013-07-07 22:12:00,81.0,71.0,-100.00,SSE,160,11.0,21.0,72,0.00,,,0.00,1.000000,,2013-07-08 03:12:00,
2013-07-07 22:23:00,81.0,71.0,-100.00,SSE,160,11.0,21.0,72,0.00,,,0.00,1.000000,,2013-07-08 03:23:00,
2013-07-07 22:34:00,81.0,71.0,-100.00,SSE,160,11.0,21.0,72,0.00,,,0.00,1.000000,,2013-07-08 03:34:00,
2013-07-07 23:02:00,80.0,71.0,-100.00,SSE,149,8.0,14.0,75,0.00,,,0.00,0.000000,,2013-07-08 04:02:00,
2013-07-07 23:12:00,80.0,71.0,-100.00,SSE,149,8.0,14.0,75,0.00,,,0.00,0.000000,,2013-07-08 04:12:00,
2013-07-07 23:22:00,80.0,71.0,-100.00,SSE,149,8.0,14.0,75,0.00,,,0.00,0.000000,,2013-07-08 04:22:00,
2013-07-07 23:33:00,80.0,71.0,-100.00,SSE,149,8.0,14.0,75,0.00,,,0.00,0.000000,,2013-07-08 04:33:00,